Weather History for Marfa, TX

Change the Weather History Date:

Wednesday, October 1, 2014

  Actual Average Record
Temperature  
Mean Temperature 68 °F -  
Max Temperature 84 °F 77 °F 91 °F (2000)
Min Temperature 51 °F 49 °F 41 °F (2008)
Cooling Degree Days 2    
Growing Degree Days 18 (Base 50)    
Moisture  
Dew Point 50 °F    
Average Humidity 59    
Maximum Humidity 100    
Minimum Humidity 21    
Precipitation  
Precipitation 0.00 in - - ()
Sea Level Pressure  
Sea Level Pressure 30.00 in    
Wind  
Wind Speed 5 mph (WNW)    
Max Wind Speed 14 mph    
Max Gust Speed 22 mph    
Visibility 10 miles    
Events      
Averages and records for this station are not official NWS values.
T = Trace of Precipitation, MM = Missing Value Source: NWS Daily Summary

Daily Weather History Graph

Daily Weather History Graph

Search for Another Location

Airport:

Trip Planner

Search our weather history database for the weather conditions in past years. The results will help you decide how hot, cold, wet, or windy it might be!

Date:

Astronomy

Oct. 01, 2014 Rise Set
Actual Time 7:49 AM CDT 7:41 PM CDT
Civil Twilight 7:25 AM CDT 8:05 PM CDT
Nautical Twilight 6:57 AM CDT 8:33 PM CDT
Astronomical Twilight 6:29 AM CDT 9:00 PM CDT
Moon 2:35 PM CDT (10/1) 12:33 AM CDT (10/1)
Length of Visible Light 12h 39m
Length of Day
11h 51m
Waxing Crescent, 49% of the Moon is Illuminated
Oct 1
Waxing Crescent
Oct 1
First Quarter
Oct 8
Full
Oct 15
Last Quarter
Oct 23
New

Hourly Weather History & Observations

Time (CDT) Temp. Heat Index Dew Point Humidity Pressure Visibility Wind Dir Wind Speed Gust Speed Precip Events Conditions
12:15 AM 62.6 °F - 55.4 °F 77% 30.07 in 10.0 mi South 3.5 mph - N/A   Clear
12:35 AM 62.6 °F - 55.4 °F 77% 30.07 in 10.0 mi Calm Calm - N/A   Clear
12:55 AM 60.8 °F - 55.4 °F 82% 30.07 in 10.0 mi West 4.6 mph - N/A   Clear
1:15 AM 55.4 °F - 53.6 °F 94% 29.97 in 10.0 mi NNW 3.5 mph - N/A   Clear
1:35 AM 55.4 °F - 51.8 °F 88% 29.97 in 10.0 mi North 4.6 mph - N/A   Clear
1:55 AM 55.4 °F - 53.6 °F 94% 30.06 in 10.0 mi NNW 3.5 mph - N/A   Clear
2:15 AM 55.4 °F - 53.6 °F 94% 30.05 in 10.0 mi NNW 3.5 mph - N/A   Clear
2:35 AM 57.2 °F - 53.6 °F 88% 29.97 in 10.0 mi Calm Calm - N/A   Clear
2:55 AM 55.4 °F - 53.6 °F 94% 30.06 in 10.0 mi NW 4.6 mph - N/A   Clear
3:15 AM 57.2 °F - 53.6 °F 88% 29.97 in 10.0 mi North 5.8 mph - N/A   Clear
3:35 AM 55.4 °F - 53.6 °F 94% 29.97 in 10.0 mi North 6.9 mph - N/A   Clear
3:55 AM 57.2 °F - 53.6 °F 88% 29.97 in 10.0 mi NNW 5.8 mph - N/A   Clear
4:15 AM 57.2 °F - 53.6 °F 88% 29.97 in 10.0 mi North 5.8 mph - N/A   Clear
4:35 AM 55.4 °F - 53.6 °F 94% 29.97 in 10.0 mi North 3.5 mph - N/A   Clear
4:55 AM 55.4 °F - 51.8 °F 88% 29.97 in 10.0 mi Calm Calm - N/A   Clear
5:15 AM 55.4 °F - 51.8 °F 88% 29.97 in 10.0 mi NW 4.6 mph - N/A   Clear
5:35 AM 55.4 °F - 51.8 °F 88% 29.97 in 10.0 mi NNW 4.6 mph - N/A   Clear
5:55 AM 55.4 °F - 51.8 °F 88% 29.98 in 10.0 mi Calm Calm - N/A   Clear
6:15 AM 53.6 °F - 51.8 °F 94% 29.98 in 10.0 mi North 3.5 mph - N/A   Clear
6:55 AM 51.8 °F - 50.0 °F 94% 29.98 in 10.0 mi NNE 3.5 mph - N/A   Clear
7:55 AM 51.8 °F - 48.2 °F 88% 30.00 in 10.0 mi NNW 3.5 mph - N/A   Clear
8:15 AM 51.8 °F - 51.8 °F 100% 30.00 in 10.0 mi NNW 4.6 mph - N/A   Clear
8:35 AM 55.4 °F - 53.6 °F 94% 30.01 in 10.0 mi NW 5.8 mph - N/A   Clear
8:55 AM 60.8 °F - 55.4 °F 82% 30.02 in 10.0 mi Calm Calm - N/A   Clear
9:15 AM 62.6 °F - 57.2 °F 82% 30.07 in 10.0 mi Calm Calm - N/A   Clear
9:35 AM 64.4 °F - 57.2 °F 77% 30.07 in 10.0 mi Calm Calm - N/A   Clear
9:55 AM 68.0 °F - 57.2 °F 68% 30.03 in 10.0 mi Calm Calm - N/A   Clear
10:15 AM 69.8 °F - 57.2 °F 64% 30.04 in 10.0 mi SSW 3.5 mph - N/A   Clear
10:35 AM 73.4 °F - 55.4 °F 53% 30.04 in 10.0 mi WSW 9.2 mph - N/A   Clear
10:55 AM 77.0 °F - 51.8 °F 41% 30.04 in 10.0 mi WSW 11.5 mph - N/A   Clear
11:15 AM 77.0 °F - 50.0 °F 39% 30.05 in 10.0 mi WSW 8.1 mph - N/A   Clear
11:35 AM 78.8 °F - 51.8 °F 39% 30.05 in 10.0 mi West 11.5 mph 17.3 mph N/A   Clear
11:55 AM 78.8 °F - 50.0 °F 36% 30.05 in 10.0 mi WSW 6.9 mph - N/A   Clear
12:15 PM 78.8 °F - 51.8 °F 39% 30.05 in 10.0 mi WSW 4.6 mph - N/A   Clear
12:35 PM 80.6 °F - 51.8 °F 37% 30.04 in 10.0 mi SW 13.8 mph 20.7 mph N/A   Clear
12:55 PM 80.6 °F - 48.2 °F 32% 30.04 in 10.0 mi SW 12.7 mph 19.6 mph N/A   Clear
1:15 PM 80.6 °F - 48.2 °F 32% 30.03 in 10.0 mi WSW 10.4 mph 16.1 mph N/A   Clear
1:35 PM 80.6 °F - 46.4 °F 30% 30.03 in 9.0 mi WSW 12.7 mph 21.9 mph N/A   Clear
1:55 PM 80.6 °F - 46.4 °F 30% 30.02 in 10.0 mi WSW 13.8 mph 19.6 mph N/A   Clear
2:15 PM 82.4 °F - 44.6 °F 26% 30.01 in 10.0 mi WSW 10.4 mph 20.7 mph N/A   Clear
2:35 PM 82.4 °F - 44.6 °F 26% 30.00 in 10.0 mi SW 10.4 mph - N/A   Clear
2:55 PM 82.4 °F 81.7 °F 55.4 °F 39% 30.00 in 10.0 mi WSW 10.4 mph 16.1 mph N/A   Partly Cloudy
3:15 PM 82.4 °F 81.4 °F 53.6 °F 37% 29.99 in 10.0 mi SW 10.4 mph 17.3 mph N/A   Mostly Cloudy
3:35 PM 84.2 °F 82.8 °F 53.6 °F 35% 29.98 in 10.0 mi WSW 8.1 mph 19.6 mph N/A   Mostly Cloudy
3:55 PM 84.2 °F 82.8 °F 53.6 °F 35% 29.97 in 10.0 mi SSW 12.7 mph 17.3 mph N/A   Scattered Clouds
4:15 PM 84.2 °F 82.8 °F 53.6 °F 35% 29.97 in 10.0 mi SW 11.5 mph - N/A   Scattered Clouds
4:35 PM 84.2 °F - 51.8 °F 33% 29.97 in 10.0 mi West 13.8 mph 18.4 mph N/A   Mostly Cloudy
4:55 PM 82.4 °F - 41.0 °F 23% 29.97 in 10.0 mi SW 10.4 mph - N/A   Clear
5:15 PM 82.4 °F - 39.2 °F 21% 29.97 in 10.0 mi WSW 10.4 mph - N/A   Clear
5:35 PM 82.4 °F - 41.0 °F 23% 29.97 in 10.0 mi SW 12.7 mph 16.1 mph N/A   Clear
5:55 PM 84.2 °F - 50.0 °F 30% 29.95 in 10.0 mi West 12.7 mph - N/A   Partly Cloudy
6:15 PM 82.4 °F - 48.2 °F 30% 29.95 in 10.0 mi WSW 10.4 mph - N/A   Partly Cloudy
6:35 PM 82.4 °F - 50.0 °F 32% 29.95 in 10.0 mi West 8.1 mph - N/A   Partly Cloudy
6:55 PM 80.6 °F - 39.2 °F 23% 29.97 in 10.0 mi West 10.4 mph - N/A   Clear
7:15 PM 80.6 °F - 39.2 °F 23% 29.98 in 10.0 mi West 8.1 mph - N/A   Clear
7:35 PM 77.0 °F - 41.0 °F 28% 29.98 in 10.0 mi West 5.8 mph - N/A   Clear
7:55 PM 73.4 °F - 41.0 °F 31% 29.98 in 10.0 mi West 5.8 mph - N/A   Clear
8:15 PM 69.8 °F - 42.8 °F 38% 29.99 in 10.0 mi West 4.6 mph - N/A   Clear
8:35 PM 64.4 °F - 42.8 °F 45% 29.99 in 10.0 mi WNW 3.5 mph - N/A   Clear
8:55 PM 64.4 °F - 42.8 °F 45% 30.00 in 10.0 mi Calm Calm - N/A   Clear
9:15 PM 64.4 °F - 44.6 °F 49% 30.00 in 10.0 mi ENE 3.5 mph - N/A   Clear
9:35 PM 62.6 °F - 44.6 °F 52% 30.01 in 10.0 mi ENE 4.6 mph - N/A   Clear
9:55 PM 59.0 °F - 44.6 °F 59% 30.01 in 10.0 mi NE 4.6 mph - N/A   Clear
10:15 PM 59.0 °F - 44.6 °F 59% 30.01 in 10.0 mi NE 5.8 mph - N/A   Clear
10:35 PM 59.0 °F - 44.6 °F 59% 30.02 in 10.0 mi NNE 4.6 mph - N/A   Clear
10:55 PM 57.2 °F - 44.6 °F 63% 30.02 in 10.0 mi NNW 8.1 mph - N/A   Clear
11:15 PM 57.2 °F - 44.6 °F 63% 30.02 in 10.0 mi North 6.9 mph - N/A   Clear
11:35 PM 55.4 °F - 44.6 °F 67% 30.02 in 10.0 mi NNW 5.8 mph - N/A   Clear
11:55 PM 55.4 °F - 44.6 °F 67% 30.01 in 10.0 mi NNW 8.1 mph - N/A   Clear